Kuchera_Ratio
0.0 0.0 0.0 0.0 0.0 0.0 0.0 0.0 0.0 0.0 0.0 0.0 0.0 0.0 0.0 0.0 0.0 0.0 0.0 0.0 0.0 0.0 0.0 0.0 0.0 0.0 0.0 0.0 0.0 0.0 0.0 0.0 0.0 0.0 0.0 0.0 0.0 0.0
0.0 0.0 0.0 0.0 0.0 0.0 0.0 0.0 0.0 0.0 0.0 0.0 0.0 0.0 0.0 0.0 0.0 0.0 0.0 0.0 0.0 0.0 0.0 0.0 0.0 0.0 0.0 0.0 0.0 0.0 0.0 0.0 0.0 0.0 0.0 0.0 0.0 0.0
0.0 0.0 0.0 0.0 0.0 0.0 0.0 0.0 0.0 0.0 0.0 0.0 0.0 0.0 0.0 0.0 0.0 0.0 0.0 0.0 0.0 0.0 0.0 0.0 0.0 0.0 0.0 0.0 0.0 0.0 0.0 0.0 0.0 0.0 0.0 0.0 0.0 0.0
0.0 0.0 0.0 0.0 0.0 0.0 0.0 0.0 0.0 0.0 0.0 0.0 0.0 0.0 0.0 0.0 0.0 0.0 0.0 0.0 0.0 0.0 0.0 0.0 0.0 0.0 0.0 0.0 0.0 0.0 0.0 0.0 0.0 0.0 0.0 0.0 0.0 0.0
0.0 0.0 0.0 0.0 0.0 0.0 0.0 0.0 0.0 0.0 0.0 0.0 0.0 0.0 0.0 0.0 0.0 0.0 0.0 0.0 0.0 0.0 0.0 0.0 0.0 0.0 0.0 0.0 0.0 0.0 0.0 0.0 0.0 0.0 0.0 0.0 0.0 0.0
0.0 0.0 0.0 0.0 0.0 0.0 0.0 0.0 0.0 0.0 0.0 0.0 0.0 0.0 0.0 0.0 0.0 0.0 0.0 0.0 0.0 0.0 0.0 0.0 0.0 0.0 0.0 0.0 0.0 0.0 0.0 0.0 0.0 0.0 0.0 0.0 0.0 0.0
0.0 0.0 0.0 0.0 0.0 0.0 0.0 0.0 0.0 0.0 0.0 0.0 0.0 0.0 0.0 0.0 0.0 0.0 0.0 0.0 0.0 0.0 0.0 0.0 0.0 0.0 0.0 0.0 0.0 0.0 0.0 0.0 0.0 0.0 0.0 0.0 0.0 0.0
0.0 0.0 0.0 0.0 0.0 0.0 0.0 0.0 0.0 0.0 0.1 0.0 2.6 0.2 0.0 0.0 0.0 0.0 0.0 0.0 1.2 0.0 0.0 0.0 0.0 0.0 0.0 0.0 0.0 0.0 0.0 0.0 0.0 0.0 0.0 0.0 0.0 0.0
0.0 0.0 0.0 0.0 0.0 0.0 0.0 0.0 0.0 0.0 0.0 0.6 3.8 2.9 2.6 0.1 0.0 0.0 0.0 0.0 0.0 0.0 0.0 0.0 0.0 0.0 0.0 0.0 0.0 0.0 0.0 0.0 0.0 0.0 0.0 0.0 0.0 0.0
0.0 0.0 0.0 0.0 0.0 0.0 0.9 2.3 1.4 1.0 0.0 0.0 2.6 0.7 0.0 0.0 0.0 0.0 0.5 0.0 0.0 0.0 0.0 2.0 0.0 0.0 0.0 0.0 0.0 0.0 0.0 0.0 0.0 0.0 0.0 0.0 0.0 0.0
0.0 0.0 0.0 1.5 0.0 0.0 1.1 3.9 2.8 0.6 0.0 0.0 0.0 0.0 0.0 0.0 0.0 0.0 1.8 3.2 4.2 1.7 0.0 2.4 0.0 2.5 2.5 0.5 0.0 0.0 0.0 0.0 0.0 0.0 0.0 0.0 0.0 0.0
0.0 0.0 0.0 0.0 0.0 0.0 3.3 5.6 6.2 4.1 1.1 0.6 1.4 2.6 0.0 0.0 0.0 0.0 1.1 4.7 5.3 5.1 0.9 4.9 3.4 4.7 4.7 5.2 2.9 2.3 0.6 0.0 0.0 0.0 0.0 0.0 0.0 0.6
2.6 2.0 1.7 0.0 0.0 0.0 0.0 6.1 3.5 0.0 0.9 3.1 4.1 2.7 1.7 0.8 1.1 0.5 1.2 3.5 5.9 6.2 1.3 4.5 6.1 6.9 6.7 6.8 7.7 5.0 5.2 3.0 1.4 0.0 0.0 0.0 1.9 0.0
4.6 3.7 3.9 0.0 0.0 0.0 0.8 0.0 0.0 0.8 8.4 6.7 7.3 6.7 6.4 5.8 4.2 3.2 3.9 4.5 4.6 6.3 4.8 4.9 6.0 6.4 7.9 9.2 10.1 8.3 8.0 7.6 6.4 7.9 7.7 5.8 1.3 0.0
2.8 0.7 0.0 0.0 0.0 2.1 0.2 0.0 0.8 9.5 10.2 9.0 9.0 8.6 7.6 6.3 6.0 5.6 5.6 5.9 6.9 7.5 7.8 7.4 7.3 7.6 7.8 8.3 9.8 9.8 8.9 8.7 7.9 8.1 8.6 8.6 8.8 7.9
1.6 5.8 1.0 0.0 0.0 2.2 5.2 6.8 8.7 10.4 8.6 9.3 9.3 8.1 6.7 7.1 7.0 5.7 7.3 7.3 8.4 9.2 8.8 8.1 7.8 7.7 8.1 8.0 9.6 10.1 9.0 10.8 8.6 8.6 9.0 9.9 7.6 6.4
2.4 7.1 8.1 8.6 9.3 10.0 10.3 10.9 11.4 8.6 9.5 9.3 10.1 10.2 9.3 8.3 7.7 6.5 7.3 8.6 10.4 10.0 9.2 12.1 12.3 11.7 8.7 8.3 12.1 9.8 10.6 10.4 9.1 9.8 10.7 11.9 9.6 8.6
7.3 9.0 11.8 9.7 11.2 11.3 11.5 11.4 10.9 9.1 9.9 10.4 10.8 10.7 11.1 10.3 9.2 7.2 7.2 9.5 10.9 11.8 11.3 12.2 12.9 12.5 11.4 11.4 6.1 11.5 11.5 11.5 10.8 10.7 10.6 12.6 12.1 9.7
9.4 10.5 12.0 11.0 11.5 11.7 11.0 12.4 13.1 11.3 11.6 12.2 12.2 11.8 11.4 10.6 9.2 9.3 8.7 9.3 12.2 11.9 9.1 12.0 12.7 13.0 13.8 14.5 11.9 6.6 12.3 12.8 12.4 11.0 9.2 10.1 12.1 10.3
10.1 10.7 11.7 11.9 12.4 12.6 12.3 12.6 12.7 12.5 12.9 12.9 12.7 12.4 12.6 12.4 11.3 10.3 8.9 10.0 12.0 11.9 10.8 12.1 12.4 13.0 12.8 13.3 13.8 12.7 6.0 12.3 12.0 12.6 12.0 9.6 7.0 2.4
11.9 12.1 12.0 10.9 11.4 11.9 12.2 12.6 13.0 13.4 13.0 13.3 13.2 13.0 13.3 13.1 12.3 10.2 9.4 6.7 7.1 9.6 11.9 12.5 10.7 5.3 11.6 11.3 13.7 13.3 10.8 4.5 7.8 12.1 11.7 12.0 12.4 11.1
9.4 10.5 10.4 10.6 11.9 12.4 12.8 13.2 13.9 14.6 14.0 13.7 13.6 13.9 13.7 13.0 12.8 11.6 9.7 9.8 10.2 11.4 12.2 10.0 9.4 12.2 11.8 12.4 14.2 13.8 12.3 9.3 5.2 3.5 3.6 6.3 9.7 12.8
9.9 10.2 10.9 11.1 11.9 12.2 12.7 13.5 14.2 15.3 14.9 14.1 14.2 14.4 13.9 13.9 12.8 12.2 10.1 9.2 10.7 11.2 12.6 13.7 12.5 11.9 11.6 12.7 13.0 13.4 12.8 12.4 10.6 10.4 8.5 2.5 2.3 2.4